This is the latest recevied weather packets stored in our database for station/object KK7ISX. If no packets are shown the sender has not sent any weather packets the latest 10 day(s).
| Time | Temp. | Humidity | Pressure | Rain* | Wind** | Luminosity | Snow |
|---|---|---|---|---|---|---|---|
| 1777479813 | 14.44° C | 47% | 1021 hPa | 0 mm | - | 371 W/m² | - |
| 1777479511 | 14.44° C | 48% | 1021 hPa | 0 mm | - | 376 W/m² | - |
| 1777479208 | 13.89° C | 48% | 1020.9 hPa | 0 mm | - | 331 W/m² | - |
| 1777478904 | 13.33° C | 49% | 1021 hPa | 0 mm | - | 276 W/m² | - |
| 1777478601 | 13.33° C | 50% | 1021 hPa | 0 mm | - | 262 W/m² | - |
| 1777478298 | 13.33° C | 49% | 1020.9 hPa | 0 mm | - | 217 W/m² | - |
| 1777477995 | 12.78° C | 49% | 1021 hPa | 0 mm | - | 195 W/m² | - |
| 1777477690 | 13.33° C | 49% | 1021 hPa | 0 mm | - | 213 W/m² | - |
| 1777477387 | 12.78° C | 49% | 1020.9 hPa | 0 mm | - | 232 W/m² | - |
| 1777477083 | 12.78° C | 48% | 1020.8 hPa | 0 mm | - | 224 W/m² | - |
| 1777476780 | 12.78° C | 47% | 1020.8 hPa | 0 mm | - | 225 W/m² | - |
| 1777476477 | 12.22° C | 52% | 1020.8 hPa | 0 mm | - | 224 W/m² | - |
| 1777476174 | 12.78° C | 51% | 1020.7 hPa | 0 mm | - | 218 W/m² | - |
| 1777475870 | 12.22° C | 51% | 1020.8 hPa | 0 mm | - | 263 W/m² | - |
| 1777475566 | 12.22° C | 53% | 1020.9 hPa | 0 mm | - | 252 W/m² | - |
| 1777475263 | 11.67° C | 54% | 1020.8 hPa | 0 mm | - | 224 W/m² | - |
| 1777474957 | 11.67° C | 55% | 1020.9 hPa | 0 mm | - | 192 W/m² | - |
| 1777474654 | 11.67° C | 54% | 1021.1 hPa | 0 mm | - | 155 W/m² | - |
| 1777474351 | 11.67° C | 53% | 1020.9 hPa | 0 mm | - | 134 W/m² | - |
| 1777474047 | 11.11° C | 54% | 1020.8 hPa | 0 mm | - | 118 W/m² | - |
| 1777473745 | 11.11° C | 54% | 1021 hPa | 0 mm | - | 112 W/m² | - |
| 1777473441 | 10.56° C | 56% | 1020.8 hPa | 0 mm | - | 110 W/m² | - |
| 1777473136 | 10.56° C | 57% | 1020.5 hPa | 0 mm | - | 110 W/m² | - |
| 1777472834 | 10° C | 58% | 1020.7 hPa | 0 mm | - | 113 W/m² | - |
| 1777472530 | 10° C | 60% | 1020.7 hPa | 0 mm | - | 105 W/m² | - |
* Rain latest hour (hover to see other rain measurements)
** Current wind speed in m/s (hover to see current wind gust speed)